Location: Newark
(48.6767°N, 1.3256°E)
Time: 21:57:30
(UTC+00:00)

ISS - Pass Details

Date: 24 November 2019
Orbit: 411 x 421 km, 51.6° (Epoch: 14 December)

Event Time Altitude Azimuth Distance (km) Brightness Sun altitude
Rises 18:58:40 0° 251° (WSW) 2,355 1.1 -28.0°
Reaches altitude 10° 19:00:45 10° 252° (WSW) 1,496 -0.1 -28.3°
Enters shadow 19:01:46 18° 253° (WSW) 1,091 -1.0 -28.5°
